Location: Hewlett Harbor
(40.6362°N, 73.6815°W)
Time: 08:25:52
(UTC+00:00)

Daily predictions for brighter satellites

Satellite Brightness Start Highest point End
(mag) Time Altitude Azimuth Time Altitude Azimuth Time Altitude Azimuth
Cosmos 2333 4.2 23:11:30 10° NNW 23:17:11 71° ENE 23:22:52 10° SSE
YAOGAN 1 2.5 23:14:51 10° SSE 23:19:08 73° ENE 23:23:28 10° N
DELTA 2 R/B (1) 4.1 23:23:37 10° SW 23:28:53 43° SSE 23:34:09 10° E
Cosmos 2322 4.0 23:23:14 10° NNW 23:28:58 77° WSW 23:34:40 10° SSE
COSMOS 2428 2.8 23:23:27 10° NNW 23:29:06 61° ENE 23:34:42 10° SE
Cosmos 2360 Rocket 3.5 23:24:11 10° NW 23:29:32 44° WSW 23:34:51 10° S
Lacrosse 5 rocket 2.4 23:27:05 10° S 23:29:47 20° ESE 23:32:33 10° ENE
Cosmos 1939 Rocket 3.2 23:26:18 10° SE 23:29:54 39° ENE 23:33:32 10° N
Orbus 7S? 4.5 23:27:06 10° S 23:30:46 43° ESE 23:38:35 10° NE
Cosmos 2184 Rocket 4.0 23:25:22 10° N 23:31:37 76° E 23:37:56 10° SSE
Ariane Rocket 3.2 23:26:58 10° SE 23:31:49 48° ENE 23:36:42 10° N
USA 32 4.2 23:27:54 10° N 23:33:09 84° W 23:38:23 10° S
Meteor 2-15 4.4 23:27:18 10° S 23:33:25 78° E 23:39:35 10° N
Meteor 2-15 Rocket 4.5 23:27:47 10° S 23:33:49 63° E 23:39:54 10° NNE
DMSP B5D1-3 4.5 23:31:22 10° NNE 23:36:28 73° ESE 23:41:32 10° S
NOSS 0 Rocket 4.3 23:31:45 10° NNW 23:37:40 44° ENE 23:43:34 10° SE
Cosmos 1842 3.5 23:34:52 10° N 23:38:49 76° W 23:42:44 10° S
Cosmos 1300 Rocket 4.4 23:34:51 10° SSW 23:39:04 53° W 23:43:18 10° N
COSMOS 2455 3.4 23:34:33 10° NW 23:40:30 62° WSW 23:46:24 10° SSE
Aureole 1 Rocket 2.9 23:36:44 10° NNW 23:41:38 88° ENE 23:45:21 10° SSE
YAOGAN 6 3.8 23:39:05 10° S 23:42:37 48° W 23:46:13 10° NNW
Cosmos 2227 Rocket 3.0 23:38:02 10° SSE 23:42:43 27° ESE 23:47:25 10° NE
Cosmos 2056 Rocket 4.2 23:38:00 10° SSE 23:42:45 32° E 23:47:30 10° NE
COSMO-SKYMED 1 4.4 23:39:51 10° N 23:43:49 36° WNW 23:47:46 10° SW
Meteor 1-4 Rocket 4.2 23:42:21 10° NNE 23:44:33 16° ENE 23:45:24 15° E
GEOS 3 Rocket 4.2 23:40:38 11° ESE 23:45:12 40° NE 23:49:57 10° NNW
Cosmos 407 Rocket 4.3 23:40:42 10° N 23:45:13 30° ENE 23:49:09 13° ESE
Cosmos 2219 3.4 23:40:14 10° S 23:45:46 52° ESE 23:51:20 10° NNE
Cosmos 405 Rocket 3.9 23:43:03 10° SE 23:45:50 21° E 23:48:39 10° NE
Cosmos 2297 Rocket 2.7 23:48:03 10° S 23:53:08 36° ESE 23:58:14 10° NE
Nadezhda 1 Rocket 3.9 23:47:36 10° S 23:53:40 86° E 23:59:47 10° N
Cosmos 1624 Rocket 4.3 23:49:31 10° S 23:54:21 41° ESE 23:59:12 10° NNE
PSLV R/B 3.4 23:53:41 10° SW 23:56:12 37° SSE 23:57:11 26° ESE
